sat.trackr.live / text

‹ back to catalog

STARLINK-3969

NORAD 52551 · 2022-051U

PAYLOAD ACTIVE UNKNOWN

§ Identity

Operator
Country
US
Launch date
2022-05-13
Launch site
AFWTR
Launch vehicle
Mass (kg)
RCS (m²)

Purposes: comms

External: N2YO · Heavens-Above · Gunter

§ Orbital elements

Epoch: 2026-09-19T19:40:26.900256Z

Period
93.90 min
Inclination
53.1601°
Eccentricity
0.0001044
Mean motion
15.33532023 rev/d
Perigee alt
464.6 km
Apogee alt
466.0 km
Semi-major
6,843.4 km
B*
-3.0562e-5
RAAN
325.0241°
Arg perigee
150.8948°
Mean anomaly
209.2113°
Rev number
24,092

§ Raw data

STARLINK-39691 52551U 22051U   26262.81975579 -.00001377  00000+0 -30562-4 0  99962 52551  53.1601 325.0241 0001044 150.8948 209.2113 15.33532023240929

JSON: /api/v1/satellites/52551 · /tle

For live sub-satellite position, see the globe view (requires WebGL).

§ Visibility from observer

Set your observer location to see the next 7 days of passes ≥ 10°. The values pass through the URL so the page stays shareable.

No JS? Fill the form by hand. The geolocation button needs JavaScript.